Provo, UT

6:00 AM MST on November 12, 2019 (GMT -0700)
Provo Municipal

Weather History for KPVU - August, 2019

Change the Weather History Date:

Wednesday, August 21, 2019

  Actual Average Record
Temperature  
Mean Temperature 76 °F -  
Max Temperature 96 °F 85 °F 96 °F (2019)
Min Temperature 57 °F 56 °F 51 °F (2004)
Cooling Degree Days 11    
Growing Degree Days 26 (Base 50)    
Moisture  
Dew Point 41 °F    
Average Humidity 34    
Maximum Humidity 60    
Minimum Humidity 9    
Precipitation  
Precipitation 0.00 in - - ()
Sea Level Pressure  
Sea Level Pressure 29.84 in    
Wind  
Wind Speed 4 mph (South)    
Max Wind Speed 8 mph    
Max Gust Speed -    
Visibility 10 miles    
Events      
Averages and records for this station are not official NWS values.
T = Trace of Precipitation, MM = Missing Value Source: NWS Daily Summary

Daily Weather History Graph

Daily Weather History Graph

Search for Another Location

Airport or City:

Astronomy

Aug. 21, 2019 Rise Set
Actual Time 6:43 AM MDT 8:15 PM MDT
Civil Twilight 6:15 AM MDT 8:44 PM MDT
Nautical Twilight 5:40 AM MDT 9:18 PM MDT
Astronomical Twilight 5:03 AM MDT 9:55 PM MDT
Moon 11:34 PM MDT (8/21) 12:23 PM MDT (8/21)
Length of Visible Light 14h 29m
Length of Day
13h 31m
Waning Gibbous, 68% of the Moon is Illuminated
Aug 21
Waning Gibbous
Aug 23
Last Quarter
Aug 30
New
Sep 5
First Quarter
Sep 13
Full

Hourly Weather History & Observations

Time (MDT) Temp. Heat Index Dew Point Humidity Pressure Visibility Wind Dir Wind Speed Gust Speed Precip Events Conditions
12:56 AM 64.0 °F - 50.0 °F 60% 29.88 in 10.0 mi SSE 6.9 mph - N/A   Clear
1:56 AM 62.1 °F - 46.0 °F 56% 29.89 in 10.0 mi Calm Calm - N/A   Clear
2:56 AM 63.0 °F - 41.0 °F 45% 29.89 in 10.0 mi SE 3.5 mph - N/A   Clear
3:56 AM 59.0 °F - 41.0 °F 51% 29.90 in 10.0 mi Calm Calm - N/A   Clear
4:56 AM 57.0 °F - 43.0 °F 59% 29.90 in 10.0 mi Calm Calm - N/A   Clear
5:56 AM 66.0 °F - 39.0 °F 37% 29.89 in 10.0 mi West 4.6 mph - N/A   Clear
6:56 AM 64.0 °F - 34.0 °F 33% 29.90 in 10.0 mi Calm Calm - N/A   Clear
7:56 AM 61.0 °F - 41.0 °F 48% 29.93 in 10.0 mi Calm Calm - N/A   Clear
8:56 AM 70.0 °F - 37.0 °F 30% 29.94 in 10.0 mi Calm Calm - N/A   Clear
9:56 AM 75.9 °F - 39.0 °F 26% 29.94 in 10.0 mi SSE 8.1 mph - N/A   Clear
10:56 AM 79.0 °F - 43.0 °F 28% 29.94 in 10.0 mi Variable 3.5 mph - N/A   Clear
11:56 AM 82.0 °F - 48.0 °F 30% 29.91 in 10.0 mi WSW 5.8 mph - N/A   Partly Cloudy
12:56 PM 86.0 °F - 39.0 °F 19% 29.89 in 5.0 mi WNW 4.6 mph - N/A   Haze
1:56 PM 91.0 °F - 37.9 °F 15% 29.85 in 10.0 mi Variable 3.5 mph - N/A   Partly Cloudy
2:56 PM 93.0 °F - 35.1 °F 13% 29.82 in 10.0 mi Variable 3.5 mph - N/A   Partly Cloudy
3:56 PM 95.0 °F - 26.1 °F 9% 29.79 in 10.0 mi North 5.8 mph - N/A   Clear
4:56 PM 95.0 °F - 27.0 °F 9% 29.77 in 10.0 mi Calm Calm - N/A   Scattered Clouds
5:56 PM 95.0 °F - 28.9 °F 10% 29.73 in 10.0 mi North 4.6 mph - N/A   Mostly Cloudy
6:56 PM 95.0 °F - 28.9 °F 10% 29.72 in 10.0 mi SSE 3.5 mph - N/A   Mostly Cloudy
7:56 PM 84.9 °F 83.3 °F 54.0 °F 34% 29.75 in 10.0 mi SSW 6.9 mph - N/A   Scattered Clouds
8:56 PM 77.0 °F - 55.9 °F 48% 29.75 in 10.0 mi SE 4.6 mph - N/A   Clear
9:56 PM 75.9 °F - 60.1 °F 58% 29.75 in 10.0 mi SW 8.1 mph - N/A   Clear
10:56 PM 68.0 °F - 52.0 °F 56% 29.75 in 10.0 mi East 4.6 mph - N/A   Clear
11:56 PM 69.1 °F - 44.1 °F 40% 29.73 in 10.0 mi SE 4.6 mph - N/A   Clear